sat.trackr.live / text

‹ back to catalog

STARLINK-1422

NORAD 45696 · 2020-035AR

PAYLOAD ACTIVE UNKNOWN

§ Identity

Operator
Country
US
Launch date
2020-06-04
Launch site
AFETR
Launch vehicle
Mass (kg)
RCS (m²)

Purposes: comms

External: N2YO · Heavens-Above · Gunter

§ Orbital elements

Epoch: 2026-05-25T01:41:43.888704Z

Period
93.89 min
Inclination
53.1581°
Eccentricity
0.0003684
Mean motion
15.33666031 rev/d
Perigee alt
462.4 km
Apogee alt
467.4 km
Semi-major
6,843.0 km
B*
1.2106e-3
RAAN
54.1690°
Arg perigee
104.5109°
Mean anomaly
255.6302°
Rev number
33,067

§ Raw data

STARLINK-14221 45696U 20035AR  26145.07064686  .00039807  00000+0  12106-2 0  99932 45696  53.1581  54.1690 0003684 104.5109 255.6302 15.33666031330677

JSON: /api/v1/satellites/45696 · /tle

For live sub-satellite position, see the globe view (requires WebGL).

§ Visibility from observer

Set your observer location to see the next 7 days of passes ≥ 10°. The values pass through the URL so the page stays shareable.

No JS? Fill the form by hand. The geolocation button needs JavaScript.